Stations météo

Publicité
Paris-Montsouris, France (7156): Température de l'air & dewpoint: 22.05.2020 08:00:00 - 28.05.2020 08:00:00 (CEST)Paris-Montsouris, France (7156): Température de l'air 5cm: 22.05.2020 08:00:00 - 28.05.2020 08:00:00 (CEST)Paris-Montsouris, France (7156): Température de l'air -20cm & Température de l'air -100cm: 22.05.2020 08:00:00 - 28.05.2020 08:00:00 (CEST)Paris-Montsouris, France (7156): Vitesse du vent & gusts: 22.05.2020 08:00:00 - 28.05.2020 08:00:00 (CEST)Paris-Montsouris, France (7156): Direction du vent: 22.05.2020 08:00:00 - 28.05.2020 08:00:00 (CEST)Paris-Montsouris, France (7156): reduced air pressure: 22.05.2020 08:00:00 - 28.05.2020 08:00:00 (CEST)Paris-Montsouris, France (7156): visibility: 22.05.2020 08:00:00 - 28.05.2020 08:00:00 (CEST)Paris-Montsouris, France (7156): Ensoleillement: 22.05.2020 08:00:00 - 28.05.2020 08:00:00 (CEST)Paris-Montsouris, France (7156): Quantités de précipitations: 22.05.2020 08:00:00 - 28.05.2020 08:00:00 (CEST)
Date & Time tt [°C] td [°C] tt 5cm [°C] tt -20cm [°C] tt -100cm [°C] ff [km/h] ff [knt] fx [km/h] fx [knt] dd ppp [hPa] vv [km] sd [min] rr [mm]
28.05.2020 08:00:00 13,4 8,0 11,7 18,5 15,0 13 7 29 16 NE 1031,6 20 60 0,0
28.05.2020 07:00:00 12,7 7,2 10,6 18,7 15,2 12 6 31 17 NNE 1031,7 20 36 0,0
28.05.2020 06:00:00 12,9 6,9 10,9 18,9 15,2 14 8 30 16 NNE 1031,7 20 0 0,0
28.05.2020 05:00:00 13,7 7,0 11,2 19,0 15,1 13 7 29 16 NNE 1031,6 16 0 0,0
28.05.2020 04:00:00 14,8 6,9 12,2 19,2 15,2 11 6 33 18 NNE 1031,9 20 0 0,0
28.05.2020 03:00:00 15,7 6,9 12,8 19,3 15,1 14 8 35 19 NNE 1031,8 20 0 0,0
28.05.2020 02:00:00 16,6 6,7 13,6 19,5 15,2 16 9 42 23 NE 1032,2 20 0 0,0
28.05.2020 01:00:00 17,3 7,6 14,6 19,7 15,1 14 8 39 21 NNE 1032,3 20 0 0,0
28.05.2020 00:00:00 18,9 8,2 16,4 19,8 15,1 19 10 38 21 NE 1032,0 20 0 0,0
27.05.2020 23:00:00 20,1 9,0 17,5 19,9 15,1 18 10 44 24 NNE 1032,0 20 0 0,0
27.05.2020 22:00:00 21,7 9,6 18,2 19,9 15,1 15 8 37 20 NNE 1031,3 20 13 0,0
27.05.2020 21:00:00 22,7 9,8 20,6 20,0 15,1 14 7 37 20 NNE 1030,8 20 60 0,0
27.05.2020 20:00:00 24,1 10,0 24,1 19,9 15,1 17 9 37 20 NE 1030,7 20 50 0,0
27.05.2020 19:00:00 25,9 9,7 30,0 19,8 15,1 16 9 33 18 NNE 1030,7 20 60 0,0
27.05.2020 18:00:00 26,4 10,1 30,9 19,5 15,1 14 8 44 24 NE 1030,9 20 60 0,0
27.05.2020 17:00:00 26,3 10,4 33,5 19,2 15,1 14 8 35 19 NNE 1031,1 20 60 0,0
27.05.2020 16:00:00 26,3 10,0 33,5 18,9 15,1 16 9 33 18 NE 1031,5 20 60 0,0
27.05.2020 15:00:00 25,7 9,1 32,9 18,6 15,1 13 7 32 17 NE 1032,0 20 60 0,0
27.05.2020 14:00:00 25,1 9,0 32,6 18,3 15,1 13 7 35 19 NE 1032,4 19 60 0,0
27.05.2020 13:00:00 24,6 8,5 31,5 18,1 15,1 12 7 32 17 ENE 1032,9 20 60 0,0
27.05.2020 12:00:00 23,9 9,1 29,8 17,9 15,1 12 6 29 15 ENE 1033,3 20 60 0,0
27.05.2020 11:00:00 21,8 9,0 28,3 17,8 15,1 9 5 22 12 NE 1033,6 20 60 0,0
27.05.2020 10:00:00 20,5 9,1 25,8 17,9 15,1 7 4 20 11 NNE 1033,8 20 60 0,0
27.05.2020 09:00:00 19,1 9,3 15,9 18,0 15,1 9 5 18 10 NE 1033,7 20 60 0,0
27.05.2020 08:00:00 16,3 8,5 13,5 18,1 15,1 9 5 20 11 NE 1033,7 20 60 0,0
27.05.2020 07:00:00 15,1 8,3 11,9 18,2 15,1 9 5 20 11 NNE 1033,5 20 34 0,0
27.05.2020 06:00:00 15,2 8,2 11,7 18,4 15,1 9 5 21 11 NNE 1033,4 20 0 0,0
27.05.2020 05:00:00 15,8 8,0 11,4 18,5 15,1 8 4 19 10 NNE 1032,8 20 0 0,0
27.05.2020 04:00:00 16,5 8,2 12,3 18,7 15,1 9 5 26 14 NE 1032,9 20 0 0,0
27.05.2020 03:00:00 17,4 8,3 14,1 18,8 15,0 12 6 28 15 NE 1033,0 20 0 0,0
27.05.2020 02:00:00 18,1 8,4 14,5 19,0 15,0 11 6 29 16 NE 1033,3 20 0 0,0
27.05.2020 01:00:00 19,1 9,3 14,5 19,1 15,0 11 6 24 13 NE 1033,3 20 0 0,0
27.05.2020 00:00:00 19,7 8,4 14,6 19,3 15,1 9 5 22 12 NNE 1033,1 20 0 0,0
26.05.2020 23:00:00 20,2 7,5 15,2 19,4 15,0 10 5 28 15 NE 1033,3 20 0 0,0
26.05.2020 22:00:00 21,4 8,0 17,7 19,5 15,0 13 7 29 16 NE 1032,9 20 12 0,0
26.05.2020 21:00:00 22,6 7,6 20,2 19,5 15,0 15 8 35 19 NE 1032,6 20 60 0,0
26.05.2020 20:00:00 24,4 7,9 25,7 19,4 15,0 15 8 40 22 ENE 1032,4 20 60 0,0
26.05.2020 19:00:00 25,3 7,4 29,2 19,3 15,0 17 9 41 22 ENE 1032,5 20 60 0,0
26.05.2020 18:00:00 25,4 7,5 30,3 19,0 15,0 19 10 37 20 ENE 1032,6 20 60 0,0
26.05.2020 17:00:00 25,7 7,3 32,0 18,8 15,0 16 9 38 20 ENE 1032,9 20 60 0,0
26.05.2020 16:00:00 25,1 6,3 31,6 18,4 15,0 15 8 41 22 NE 1033,3 20 60 0,0
26.05.2020 15:00:00 25,4 9,6 32,7 18,1 15,0 16 9 37 20 E 1033,7 20 60 0,0
26.05.2020 14:00:00 25,0 10,1 31,6 17,8 15,0 18 10 37 20 NE 1034,2 20 60 0,0
26.05.2020 13:00:00 23,9 10,2 30,8 17,5 15,0 16 8 34 18 ENE 1034,6 20 60 0,0
26.05.2020 12:00:00 23,2 9,2 29,3 17,3 15,0 13 7 35 19 NE 1034,7 19 60 0,0
26.05.2020 11:00:00 21,9 10,7 27,1 17,3 15,0 11 6 31 17 NE 1034,9 20 60 0,0
26.05.2020 10:00:00 20,8 11,4 24,4 17,3 15,0 6 3 16 9 ENE 1034,9 20 60 0,0
26.05.2020 09:00:00 17,6 10,0 15,4 17,4 15,0 9 5 17 9 N 1034,8 20 60 0,0
26.05.2020 08:00:00 15,7 9,6 12,2 17,5 15,0 6 4 13 7 NNE 1034,6 20 60 0,0
26.05.2020 07:00:00 14,3 9,3 9,9 17,7 15,0 6 3 13 7 NNE 1034,5 20 35 0,0
26.05.2020 06:00:00 14,2 8,8 9,7 17,8 15,0 6 4 16 8 N 1034,2 20 0 0,0
26.05.2020 05:00:00 15,1 8,6 10,3 18,0 15,0 8 5 23 12 NE 1033,9 20 0 0,0
26.05.2020 04:00:00 15,8 8,5 11,4 18,1 15,0 10 5 24 13 NE 1033,7 20 0 0,0
26.05.2020 03:00:00 17,1 8,5 12,8 18,2 15,0 13 7 34 18 ENE 1033,9 20 0 0,0
26.05.2020 02:00:00 17,2 8,3 12,4 18,4 15,0 9 5 18 10 NE 1033,8 19 0 0,0
26.05.2020 01:00:00 17,5 8,4 12,6 18,5 15,0 9 5 23 13 NE 1033,7 20 0 0,0
26.05.2020 00:00:00 17,9 8,2 12,9 18,7 15,0 9 5 27 15 NE 1033,7 20 0 0,0
25.05.2020 23:00:00 18,7 8,4 14,3 18,7 15,0 10 5 25 14 ENE 1033,5 20 0 0,0
25.05.2020 22:00:00 19,7 8,4 15,7 18,8 15,0 11 6 31 17 ENE 1033,2 20 11 0,0
25.05.2020 21:00:00 21,2 9,1 19,1 18,8 15,0 9 5 28 15 ENE 1032,8 20 44 0,0
25.05.2020 20:00:00 22,4 8,5 20,8 18,7 14,9 10 5 29 16 E 1032,4 20 37 0,0
25.05.2020 19:00:00 22,2 8,7 21,7 18,6 14,9 10 5 35 19 E 1032,4 20 34 0,0
25.05.2020 18:00:00 23,4 9,4 23,1 18,5 15,0 10 6 32 17 NNE 1032,4 20 39 0,0
25.05.2020 17:00:00 23,9 10,2 23,4 18,3 14,9 10 6 27 15 NNE 1032,6 20 32 0,0
25.05.2020 16:00:00 22,3 10,8 22,6 18,1 14,9 9 5 29 16 NE 1033,0 20 7 0,0
25.05.2020 15:00:00 22,5 8,9 24,1 17,8 14,9 14 8 32 17 NE 1033,4 20 35 0,0
25.05.2020 14:00:00 21,9 10,1 24,0 17,5 14,9 11 6 29 16 NE 1033,7 20 46 0,0
25.05.2020 13:00:00 22,1 10,9 25,5 17,2 14,9 11 6 30 16 NE 1033,9 20 46 0,0
25.05.2020 12:00:00 21,7 9,6 28,6 17,1 14,9 9 5 27 14 E 1034,0 20 58 0,0
25.05.2020 11:00:00 20,5 11,4 27,9 17,0 14,9 9 5 21 11 E 1034,4 20 60 0,0
25.05.2020 10:00:00 19,0 11,1 23,3 17,0 14,9 6 4 16 9 NE 1034,3 20 60 0,0
25.05.2020 09:00:00 16,3 9,2 13,8 17,1 14,9 5 3 13 7 N 1034,4 20 60 0,0
25.05.2020 08:00:00 14,5 9,7 10,1 17,2 14,9 7 4 12 6 ENE 1034,6 20 52 0,0
25.05.2020 07:00:00 12,1 8,9 8,2 17,4 14,9 6 3 14 7 NE 1034,3 20 19 0,0
25.05.2020 06:00:00 12,0 9,0 8,4 17,5 14,9 4 2 13 7 NE 1034,3 20 0 0,0
25.05.2020 05:00:00 12,8 8,9 8,9 17,7 14,9 9 5 16 9 NNE 1034,0 17 0 0,0
25.05.2020 04:00:00 13,1 8,8 9,3 17,8 14,9 10 5 18 10 NNE 1033,9 20 0 0,0
25.05.2020 03:00:00 13,6 9,0 9,8 18,0 14,9 11 6 19 10 NNE 1034,0 20 0 0,0
25.05.2020 02:00:00 14,0 9,0 10,1 18,1 14,9 8 4 23 12 NE 1033,9 20 0 0,0
25.05.2020 01:00:00 15,2 9,3 12,0 18,2 14,9 10 6 23 12 NE 1033,7 20 0 0,0
25.05.2020 00:00:00 16,0 9,0 12,7 18,3 14,9 11 6 25 13 N 1033,6 20 0 0,0
24.05.2020 23:00:00 16,7 8,9 13,4 18,4 14,9 11 6 26 14 N 1033,5 20 0 0,0
24.05.2020 22:00:00 17,5 8,4 14,7 18,5 14,9 13 7 26 14 NNW 1033,1 20 10 0,0
24.05.2020 21:00:00 18,6 8,5 17,1 18,4 14,8 11 6 23 12 NNW 1032,6 20 60 0,0
24.05.2020 20:00:00 19,7 8,1 21,9 18,4 14,8 12 6 32 17 N 1032,6 20 60 0,0
24.05.2020 19:00:00 19,8 8,2 24,8 18,2 14,8 13 7 27 15 NNW 1032,5 20 60 0,0
24.05.2020 18:00:00 20,2 8,5 24,0 18,1 14,8 10 5 26 14 NW 1032,8 20 56 0,0
24.05.2020 17:00:00 19,9 8,9 24,4 17,9 14,8 11 6 28 15 NW 1032,9 20 46 0,0
24.05.2020 16:00:00 18,7 8,9 22,3 17,7 14,8 10 5 32 17 NNW 1033,1 20 32 0,0
24.05.2020 15:00:00 18,4 9,2 24,6 17,4 14,8 14 8 31 17 NW 1033,3 20 55 0,0
24.05.2020 14:00:00 17,1 8,5 20,2 17,2 14,8 10 6 28 15 NNW 1033,4 20 24 0,0
24.05.2020 13:00:00 17,0 9,4 19,6 17,1 14,8 9 5 29 16 NNW 1033,6 19 42 0,0
24.05.2020 12:00:00 16,7 8,6 23,0 16,9 14,8 9 5 23 13 NW 1033,5 19 58 0,0
24.05.2020 11:00:00 15,0 7,8 21,9 16,9 14,8 11 6 24 13 NW 1033,8 19 56 0,0
24.05.2020 10:00:00 13,7 7,2 15,4 17,0 14,8 14 7 31 17 NW 1034,0 19 45 0,0
24.05.2020 09:00:00 12,6 7,9 11,6 17,0 14,8 10 5 24 13 NW 1033,6 19 49 0,0
24.05.2020 08:00:00 11,4 7,9 10,1 17,2 14,8 8 5 22 12 NW 1033,2 19 56 0,0
24.05.2020 07:00:00 10,7 7,6 8,6 17,3 14,8 12 7 27 15 WNW 1032,6 20 35 0,0
24.05.2020 06:00:00 10,5 7,0 8,4 17,5 14,8 7 4 28 15 WNW 1032,1 20 0 0,0
24.05.2020 05:00:00 11,0 6,9 9,5 17,6 14,8 10 5 32 18 WNW 1032,1 20 0 0,0
24.05.2020 04:00:00 11,7 6,0 10,0 17,8 14,7 12 6 36 19 WNW 1031,9 20 0 0,0
24.05.2020 03:00:00 13,1 5,7 11,6 17,9 14,8 15 8 37 20 WNW 1031,7 20 0 0,0
24.05.2020 02:00:00 13,9 5,8 11,7 18,1 14,7 11 6 29 16 NW 1031,4 20 0 0,0
24.05.2020 01:00:00 14,7 6,0 12,6 18,2 14,7 8 5 24 13 NNW 1031,3 20 0 0,0
24.05.2020 00:00:00 15,2 5,9 13,2 18,3 14,7 10 6 32 18 NNW 1031,1 20 0 0,0
23.05.2020 23:00:00 16,1 5,7 13,2 18,4 14,7 8 4 29 15 NW 1030,7 20 0 0,0
23.05.2020 22:00:00 16,8 4,8 14,5 18,5 14,7 11 6 35 19 NW 1029,9 20 9 0,0
23.05.2020 21:00:00 17,7 4,6 15,6 18,6 14,7 13 7 40 21 NW 1029,6 20 43 0,0
23.05.2020 20:00:00 19,0 3,6 19,5 18,7 14,7 13 7 44 24 NW 1029,2 20 49 0,0
23.05.2020 19:00:00 19,6 4,1 19,1 18,6 14,7 18 10 44 24 WNW 1028,7 20 39 0,0
23.05.2020 18:00:00 19,1 6,9 18,8 18,5 14,7 15 8 63 34 NNW 1028,6 20 24 0,0
23.05.2020 17:00:00 19,4 3,5 19,8 18,4 14,7 13 7 39 21 NW 1028,2 20 17 0,0
23.05.2020 16:00:00 19,5 6,2 17,6 18,3 14,7 16 9 36 19 W 1027,8 20 35 0,2
23.05.2020 15:00:00 19,1 5,5 20,3 18,1 14,7 16 9 33 18 W 1027,7 20 30 0,0
23.05.2020 14:00:00 18,8 7,6 20,5 18,0 14,7 13 7 40 22 W 1027,8 20 37 0,0
23.05.2020 13:00:00 17,8 7,2 19,9 17,9 14,6 16 9 40 22 W 1027,9 20 38 0,0
23.05.2020 12:00:00 16,3 8,5 17,3 17,9 14,6 12 7 36 19 W 1027,6 20 39 0,0
23.05.2020 11:00:00 14,0 7,7 14,9 18,0 14,6 12 6 36 19 W 1027,1 20 0 0,0
23.05.2020 10:00:00 12,8 7,9 11,5 18,1 14,6 15 8 30 16 W 1027,1 20 0 0,0
23.05.2020 09:00:00 12,1 8,2 10,5 18,2 14,6 9 5 31 17 WNW 1026,8 20 0 0,2
23.05.2020 08:00:00 12,1 8,9 10,4 18,3 14,6 10 5 30 16 NW 1026,4 16 0 2,0
23.05.2020 07:00:00 12,5 9,5 10,6 18,5 14,6 9 5 45 24 NW 1026,4 10 0 1,4
23.05.2020 06:00:00 14,7 8,4 12,6 18,6 14,6 13 7 34 18 NNW 1024,7 19 0 0,0
23.05.2020 05:00:00 15,7 9,1 14,7 18,7 14,6 9 5 27 15 NNW 1024,0 19 0 0,0
23.05.2020 04:00:00 16,0 9,2 14,6 18,8 14,6 14 8 29 15 NNW 1023,6 20 0 0,0
23.05.2020 03:00:00 16,6 11,5 15,1 18,9 14,6 14 8 27 15 NNW 1023,6 19 0 0,0
23.05.2020 02:00:00 17,3 13,0 15,9 19,0 14,5 10 6 21 12 NNW 1023,1 20 0 0,0
23.05.2020 01:00:00 17,7 12,6 15,8 19,1 14,5 7 4 14 8 NNW 1022,7 20 0 0,0
23.05.2020 00:00:00 18,0 12,4 16,6 19,2 14,5 5 3 17 9 NNE 1022,7 20 0 0,0
22.05.2020 23:00:00 18,5 12,3 17,1 19,3 14,5 6 3 15 8 N 1022,5 20 0 0,0
22.05.2020 22:00:00 18,7 11,5 17,6 19,3 14,5 6 3 21 11 NNW 1022,4 20 0 0,0
22.05.2020 21:00:00 18,7 11,5 17,5 19,4 14,5 8 4 23 12 WNW 1022,0 20 0 0,0
22.05.2020 20:00:00 18,2 14,9 17,5 19,4 14,5 10 6 35 19 WNW 1021,9 20 0 0,0
22.05.2020 19:00:00 19,3 15,6 18,8 19,3 14,5 16 8 34 18 NNW 1021,4 20 0 0,0
22.05.2020 18:00:00 20,9 15,7 19,0 19,2 14,5 13 7 36 19 NW 1021,1 20 0 0,2
22.05.2020 17:00:00 24,2 14,3 26,1 19,0 14,5 15 8 41 22 NNW 1020,5 20 18 0,0
22.05.2020 16:00:00 26,1 14,5 29,9 18,8 14,5 18 10 45 25 WSW 1019,9 20 37 0,0
22.05.2020 15:00:00 25,4 13,9 28,7 18,7 14,5 17 9 47 26 W 1019,7 20 45 0,0
22.05.2020 14:00:00 25,9 14,0 29,1 18,4 14,4 20 11 40 22 W 1019,5 20 51 0,0
22.05.2020 13:00:00 25,2 13,4 28,5 18,4 14,5 14 8 32 18 W 1019,6 20 25 0,0
22.05.2020 12:00:00 23,9 12,5 27,4 18,3 14,4 9 5 24 13 W 1019,4 20 41 0,0
22.05.2020 11:00:00 22,8 12,7 23,1 18,3 14,4 10 5 27 14 WSW 1019,2 20 6 0,0
22.05.2020 10:00:00 21,5 12,6 20,6 18,3 14,4 13 7 30 16 W 1019,0 20 0 0,0
22.05.2020 09:00:00 20,2 14,1 18,8 18,3 14,4 6 3 17 9 SSW 1018,5 20 0 0,0
22.05.2020 08:00:00 19,0 14,3 16,8 18,4 14,4 8 5 18 10 SSW 1018,4 20 0 0,0

tt = Température de l'air
td = dewpoint
tt 5cm = Température de l'air 5cm
tt -20cm = Température de l'air -20cm
tt -100cm = Température de l'air -100cm
ff = Vitesse du vent
fx = gusts
dd = Direction du vent
ppp = reduced air pressure
vv = visibility
sd = Ensoleillement
rr = Quantités de précipitations

stations d'obs. à proximité